sat.trackr.live / text

‹ back to catalog

STARLINK-5164

NORAD 54178 · 2022-141X

PAYLOAD ACTIVE UNKNOWN

§ Identity

Operator
Country
US
Launch date
2022-10-28
Launch site
AFWTR
Launch vehicle
Mass (kg)
RCS (m²)

Purposes: comms

External: N2YO · Heavens-Above · Gunter

§ Orbital elements

Epoch: 2026-05-24T22:38:49.581888Z

Period
95.44 min
Inclination
53.2166°
Eccentricity
0.0001525
Mean motion
15.08837212 rev/d
Perigee alt
538.7 km
Apogee alt
540.8 km
Semi-major
6,917.9 km
B*
-2.1203e-5
RAAN
21.4806°
Arg perigee
92.7134°
Mean anomaly
267.4032°
Rev number
19,737

§ Raw data

STARLINK-51641 54178U 22141X   26144.94362942 -.00000625  00000+0 -21203-4 0  99972 54178  53.2166  21.4806 0001525  92.7134 267.4032 15.08837212197378

JSON: /api/v1/satellites/54178 · /tle

For live sub-satellite position, see the globe view (requires WebGL).

§ Visibility from observer

Set your observer location to see the next 7 days of passes ≥ 10°. The values pass through the URL so the page stays shareable.

No JS? Fill the form by hand. The geolocation button needs JavaScript.